Вернуться в каталог

SL-14 DEB

АктивенPO
NORAD 45287·DEBRIS·🇷🇺 Russia

Запущен Aug 15, 1991 с Plesetsk Cosmodrome

Loading…

Ближайшие Пролёты (ближайшие 24 часа)

TLE

СвежийSource: Space-Track

Эпоха: Sep 13, 2026, 20:52 UTC

1 45287U 91056Z   26256.86975174  .00000301  00000-0  57965-3 0  9994
2 45287  82.5715  36.1369 0070574  48.6188 312.0982 13.33084038319340

Отслеживайте SL-14 DEB в реальном времени с AllMySat

Download on the App Store